Volver al catálogo

STARLINK-31822

ActivoComunicacionesVLEO
NORAD 59752·PAYLOAD·🇺🇸 United States

Lanzado May 13, 2024 desde Cape Canaveral Space Force Station

Loading…

Próximos Pases (próximas 24 horas)

TLE

ActualizadoSource: CelesTrak SupGP

Época: Sep 15, 2026, 02:02 UTC

1 59752C 24090Y   26258.08520833 -.00013307  00000+0 -48207-3 0  2582
2 59752  43.0011 193.7683 0001053 267.9449 217.0260 15.27579311    16

Sigue STARLINK-31822 en tiempo real con AllMySat

Download on the App Store